{"data":{"norad_id":59154,"epoch":"2026-05-25T02:53:03.522624Z","epoch_age_seconds":61732,"freshness":"FRESH","line1":"1 59154U 24044C   26145.12017966 -.00000019  00000+0  88389-5 0  9999","line2":"2 59154  43.0012  35.4748 0001279 272.5609  87.5096 15.27580551125289","mean_motion":15.27580551,"eccentricity":0.0001279,"inclination_deg":43.0012,"raan_deg":35.4748,"arg_perigee_deg":272.5609,"mean_anomaly_deg":87.5096,"bstar":8.8389e-6,"rev_number":12528,"period_min":94.266714711531,"perigee_km":482.16990065727,"apogee_km":483.92499163859,"semimajor_km":6861.1844461479,"source":"CELESTRAK","updated_at":"2026-05-25T13:38:18.832738Z"}}